TimeCDT,TemperatureF,Dew PointF,Humidity,Sea Level PressureIn,VisibilityMPH,Wind Direction,Wind SpeedMPH,Gust SpeedMPH,PrecipitationIn,Events,Conditions,WindDirDegrees,DateUTC
12:14 AM,69.8,59.0,68,29.74,10.0,North,11.5,18.4,N/A,,Clear,350,2013-08-21 05:14:00
12:34 AM,68.0,57.2,68,29.75,10.0,North,11.5,16.1,N/A,,Clear,360,2013-08-21 05:34:00
12:54 AM,66.2,57.2,73,29.76,10.0,NNW,8.1,-,N/A,,Clear,340,2013-08-21 05:54:00
1:14 AM,64.4,57.2,77,29.77,10.0,NNW,10.4,-,N/A,,Clear,340,2013-08-21 06:14:00
1:34 AM,66.2,57.2,73,29.79,10.0,NNW,5.8,-,N/A,,Mostly Cloudy,330,2013-08-21 06:34:00
1:54 AM,64.4,55.4,73,29.80,10.0,NW,3.5,-,N/A,,Scattered Clouds,310,2013-08-21 06:54:00
2:14 AM,62.6,55.4,77,29.81,10.0,NW,5.8,-,N/A,,Scattered Clouds,310,2013-08-21 07:14:00
2:34 AM,62.6,55.4,77,29.81,10.0,NW,9.2,-,N/A,,Clear,320,2013-08-21 07:34:00
2:54 AM,62.6,55.4,77,29.82,10.0,WNW,6.9,-,N/A,,Scattered Clouds,300,2013-08-21 07:54:00
3:14 AM,60.8,55.4,82,29.82,10.0,NW,9.2,-,N/A,,Scattered Clouds,310,2013-08-21 08:14:00
3:34 AM,60.8,53.6,77,29.82,10.0,NW,8.1,-,N/A,,Clear,310,2013-08-21 08:34:00
3:54 AM,60.8,53.6,77,29.83,10.0,NW,9.2,-,N/A,,Clear,310,2013-08-21 08:54:00
4:14 AM,59.0,53.6,82,29.84,10.0,NW,6.9,-,N/A,,Clear,310,2013-08-21 09:14:00
4:34 AM,57.2,51.8,82,29.84,10.0,NW,6.9,-,N/A,,Clear,310,2013-08-21 09:34:00
4:54 AM,55.4,51.8,88,29.85,10.0,WNW,6.9,-,N/A,,Clear,300,2013-08-21 09:54:00
5:14 AM,57.2,53.6,88,29.85,10.0,WNW,4.6,-,N/A,,Clear,300,2013-08-21 10:14:00
5:34 AM,57.2,51.8,82,29.86,10.0,WNW,4.6,-,N/A,,Clear,290,2013-08-21 10:34:00
5:54 AM,57.2,51.8,82,29.85,10.0,West,5.8,-,N/A,,Clear,280,2013-08-21 10:54:00
6:14 AM,57.2,51.8,82,29.87,10.0,WNW,5.8,-,N/A,,Clear,290,2013-08-21 11:14:00
6:34 AM,57.2,51.8,82,29.88,10.0,WNW,4.6,-,N/A,,Clear,290,2013-08-21 11:34:00
6:54 AM,57.2,51.8,82,29.90,10.0,West,4.6,-,N/A,,Clear,270,2013-08-21 11:54:00
7:14 AM,57.2,51.8,82,29.90,10.0,West,3.5,-,N/A,,Clear,280,2013-08-21 12:14:00
7:34 AM,59.0,53.6,82,29.91,10.0,Calm,Calm,-,N/A,,Clear,0,2013-08-21 12:34:00
7:54 AM,60.8,55.4,82,29.92,10.0,West,3.5,-,N/A,,Clear,270,2013-08-21 12:54:00
8:14 AM,60.8,55.4,82,29.94,10.0,West,3.5,-,N/A,,Clear,280,2013-08-21 13:14:00
8:34 AM,62.6,57.2,82,29.95,10.0,WNW,4.6,-,N/A,,Clear,290,2013-08-21 13:34:00
8:54 AM,64.4,57.2,77,29.95,10.0,WNW,3.5,-,N/A,,Clear,300,2013-08-21 13:54:00
9:14 AM,66.2,57.2,73,29.96,10.0,NW,4.6,-,N/A,,Clear,320,2013-08-21 14:14:00
9:34 AM,69.8,57.2,64,29.96,10.0,West,6.9,-,N/A,,Clear,280,2013-08-21 14:34:00
9:54 AM,69.8,57.2,64,29.97,10.0,Calm,Calm,-,N/A,,Clear,0,2013-08-21 14:54:00
10:14 AM,71.6,57.2,60,29.98,10.0,WNW,4.6,-,N/A,,Clear,290,2013-08-21 15:14:00
10:34 AM,73.4,55.4,53,29.99,10.0,NW,5.8,-,N/A,,Clear,310,2013-08-21 15:34:00
10:54 AM,73.4,53.6,50,29.99,10.0,WNW,8.1,-,N/A,,Clear,290,2013-08-21 15:54:00
11:14 AM,75.2,53.6,47,29.99,10.0,WNW,5.8,-,N/A,,Clear,290,2013-08-21 16:14:00
11:34 AM,75.2,48.2,38,29.99,10.0,WNW,10.4,-,N/A,,Clear,290,2013-08-21 16:34:00
11:54 AM,77.0,51.8,41,29.99,10.0,WNW,6.9,-,N/A,,Clear,300,2013-08-21 16:54:00
12:14 PM,78.8,48.2,34,30.00,10.0,WNW,9.2,-,N/A,,Clear,290,2013-08-21 17:14:00
12:34 PM,78.8,46.4,32,30.00,10.0,WNW,12.7,23.0,N/A,,Clear,290,2013-08-21 17:34:00
12:54 PM,78.8,46.4,32,30.00,10.0,WNW,12.7,17.3,N/A,,Clear,290,2013-08-21 17:54:00
1:14 PM,78.8,44.6,30,30.00,10.0,WNW,9.2,18.4,N/A,,Clear,290,2013-08-21 18:14:00
1:34 PM,78.8,44.6,30,29.99,10.0,WNW,10.4,-,N/A,,Clear,290,2013-08-21 18:34:00
1:54 PM,80.6,42.8,26,30.00,10.0,NW,13.8,18.4,N/A,,Clear,310,2013-08-21 18:54:00
2:14 PM,80.6,42.8,26,30.00,10.0,WNW,8.1,-,N/A,,Clear,300,2013-08-21 19:14:00
2:34 PM,80.6,42.8,26,30.00,10.0,NW,12.7,-,N/A,,Clear,310,2013-08-21 19:34:00
2:54 PM,80.6,42.8,26,30.00,10.0,NW,15.0,19.6,N/A,,Clear,310,2013-08-21 19:54:00
3:14 PM,80.6,41.0,24,30.00,10.0,WNW,13.8,20.7,N/A,,Clear,300,2013-08-21 20:14:00
3:34 PM,78.8,39.2,24,30.00,10.0,WNW,11.5,19.6,N/A,,Clear,300,2013-08-21 20:34:00
3:54 PM,80.6,41.0,24,30.00,10.0,NW,13.8,18.4,N/A,,Clear,320,2013-08-21 20:54:00
4:14 PM,78.8,42.8,28,30.01,10.0,WNW,10.4,-,N/A,,Clear,290,2013-08-21 21:14:00
4:34 PM,78.8,42.8,28,30.01,10.0,WNW,12.7,17.3,N/A,,Clear,290,2013-08-21 21:34:00
4:54 PM,78.8,42.8,28,30.01,10.0,NW,10.4,-,N/A,,Clear,310,2013-08-21 21:54:00
5:14 PM,78.8,39.2,24,30.01,10.0,WNW,11.5,-,N/A,,Clear,300,2013-08-21 22:14:00
5:34 PM,78.8,39.2,24,30.01,10.0,WNW,10.4,16.1,N/A,,Clear,300,2013-08-21 22:34:00
5:54 PM,77.0,41.0,28,30.01,10.0,WNW,10.4,16.1,N/A,,Clear,290,2013-08-21 22:54:00
6:14 PM,77.0,44.6,32,30.01,10.0,WNW,10.4,16.1,N/A,,Clear,300,2013-08-21 23:14:00
6:34 PM,75.2,46.4,36,30.01,10.0,WNW,9.2,16.1,N/A,,Clear,300,2013-08-21 23:34:00
6:54 PM,73.4,46.4,38,30.02,10.0,NW,9.2,-,N/A,,Clear,310,2013-08-21 23:54:00
7:14 PM,73.4,48.2,41,30.02,10.0,NW,8.1,-,N/A,,Clear,310,2013-08-22 00:14:00
7:34 PM,71.6,48.2,43,30.03,10.0,NW,6.9,-,N/A,,Clear,310,2013-08-22 00:34:00
7:54 PM,69.8,48.2,46,30.03,10.0,WNW,5.8,-,N/A,,Clear,300,2013-08-22 00:54:00
8:14 PM,66.2,48.2,52,30.04,10.0,WNW,4.6,-,N/A,,Clear,300,2013-08-22 01:14:00
8:34 PM,64.4,50.0,59,30.05,10.0,NW,3.5,-,N/A,,Clear,310,2013-08-22 01:34:00
8:54 PM,62.6,48.2,59,30.05,10.0,WNW,3.5,-,N/A,,Clear,300,2013-08-22 01:54:00
9:14 PM,62.6,48.2,59,30.06,10.0,Calm,Calm,-,N/A,,Clear,0,2013-08-22 02:14:00
9:34 PM,60.8,48.2,63,30.07,10.0,WNW,3.5,-,N/A,,Clear,290,2013-08-22 02:34:00
9:54 PM,62.6,48.2,59,30.07,10.0,WNW,3.5,-,N/A,,Clear,290,2013-08-22 02:54:00
10:14 PM,59.0,48.2,67,30.08,10.0,Calm,Calm,-,N/A,,Clear,0,2013-08-22 03:14:00
10:34 PM,59.0,48.2,67,30.09,10.0,Calm,Calm,-,N/A,,Clear,0,2013-08-22 03:34:00
10:54 PM,59.0,48.2,67,30.09,10.0,Calm,Calm,-,N/A,,Clear,0,2013-08-22 03:54:00
11:14 PM,59.0,48.2,67,30.09,10.0,West,3.5,-,N/A,,Clear,270,2013-08-22 04:14:00
11:34 PM,59.0,46.4,63,30.10,10.0,Calm,Calm,-,N/A,,Clear,0,2013-08-22 04:34:00
11:53 PM,57.2,46.4,67,30.10,10.0,Calm,Calm,-,N/A,,Clear,0,2013-08-22 04:53:00